TimeMST,TemperatureF,Dew PointF,Humidity,Sea Level PressureIn,VisibilityMPH,Wind Direction,Wind SpeedMPH,Gust SpeedMPH,PrecipitationIn,Events,Conditions,WindDirDegrees,DateUTC
12:51 AM,55.0,28.9,37,29.76,10.0,WSW,23.0,33.4,N/A,,Clear,250,2012-02-14 07:51:00
1:51 AM,53.1,30.0,41,29.76,10.0,WSW,15.0,-,N/A,,Clear,240,2012-02-14 08:51:00
2:51 AM,51.1,30.9,46,29.75,10.0,WSW,10.4,-,N/A,,Partly Cloudy,250,2012-02-14 09:51:00
3:51 AM,48.0,30.9,52,29.75,10.0,South,4.6,-,N/A,,Scattered Clouds,190,2012-02-14 10:51:00
4:51 AM,44.1,28.9,55,29.77,10.0,SE,6.9,-,N/A,,Mostly Cloudy,130,2012-02-14 11:51:00
5:51 AM,46.9,28.9,50,29.77,10.0,South,8.1,-,N/A,,Mostly Cloudy,190,2012-02-14 12:51:00
6:51 AM,50.0,32.0,50,29.77,10.0,SW,10.4,-,N/A,,Mostly Cloudy,230,2012-02-14 13:51:00
7:51 AM,48.0,30.0,50,29.80,10.0,South,8.1,-,N/A,,Scattered Clouds,180,2012-02-14 14:51:00
8:51 AM,53.1,32.0,45,29.81,10.0,SW,12.7,-,N/A,,Scattered Clouds,230,2012-02-14 15:51:00
9:51 AM,57.0,32.0,39,29.80,10.0,SW,9.2,18.4,N/A,,Scattered Clouds,230,2012-02-14 16:51:00
10:51 AM,59.0,30.9,35,29.78,10.0,West,11.5,-,N/A,,Mostly Cloudy,260,2012-02-14 17:51:00
11:51 AM,59.0,28.4,31,29.87,10.0,SW,9.2,-,N/A,,Mostly Cloudy,220,2012-02-14 18:51:00
12:51 PM,59.0,26.1,28,29.73,10.0,West,16.1,-,N/A,,Mostly Cloudy,280,2012-02-14 19:51:00
1:51 PM,57.0,28.0,33,29.74,10.0,West,13.8,25.3,0.00,Rain,Light Rain,280,2012-02-14 20:51:00
2:51 PM,60.1,28.0,30,29.70,10.0,SSW,8.1,-,0.00,,Scattered Clouds,210,2012-02-14 21:51:00
3:51 PM,61.0,24.1,24,29.68,10.0,WNW,6.9,-,N/A,,Mostly Cloudy,300,2012-02-14 22:51:00
4:51 PM,62.1,23.0,22,29.69,7.0,WSW,24.2,32.2,N/A,,Partly Cloudy,250,2012-02-14 23:51:00
5:51 PM,59.0,19.9,22,29.72,5.0,WSW,34.5,42.6,N/A,,Widespread Dust,250,2012-02-15 00:51:00
6:51 PM,57.2,24.8,29,29.85,7.0,WSW,26.5,40.3,N/A,,Partly Cloudy,250,2012-02-15 01:51:00
7:51 PM,50.0,28.9,44,29.81,10.0,NW,25.3,40.3,N/A,,Partly Cloudy,310,2012-02-15 02:51:00
8:51 PM,45.0,27.0,49,29.86,10.0,WNW,15.0,23.0,N/A,,Clear,290,2012-02-15 03:51:00
9:51 PM,45.0,25.0,46,29.86,10.0,West,9.2,-,N/A,,Clear,280,2012-02-15 04:51:00
10:51 PM,44.1,21.9,42,29.86,10.0,WNW,13.8,-,N/A,,Clear,290,2012-02-15 05:51:00
11:51 PM,44.1,19.9,38,29.87,10.0,WNW,13.8,23.0,N/A,,Clear,290,2012-02-15 06:51:00